Nenana, AK

11:20 PM AKST on February 24, 2017 (GMT -0900)
Nenana Municipal

Weather History for PANN - May, 2013

Change the Weather History Date:

Monday, May 27, 2013

  Actual Average Record
Temperature  
Mean Temperature 60 °F -  
Max Temperature 80 °F 62 °F 84 °F (1998)
Min Temperature 46 °F 37 °F 35 °F (2008)
Degree Days  
Heating Degree Days 6    
Growing Degree Days 10 (Base 50)    
Moisture  
Dew Point 36 °F    
Average Humidity 40    
Maximum Humidity 95    
Minimum Humidity 18    
Precipitation  
Precipitation 0.02 in - - ()
Sea Level Pressure  
Sea Level Pressure 29.80 in    
Wind  
Wind Speed 2 mph (ESE)    
Max Wind Speed 12 mph    
Max Gust Speed -    
Visibility 10 miles    
Events      
Averages and records for this station are not official NWS values.
T = Trace of Precipitation, MM = Missing Value Source: NWS Daily Summary

Daily Weather History Graph

Daily Weather History Graph

Search for Another Location

Airport or City:

Trip Planner

Search our weather history database for the weather conditions in past years. The results will help you decide how hot, cold, wet, or windy it might be!

Date:

Astronomy

May. 27, 2013 Rise Set
Actual Time 3:56 AM AKDT 11:52 PM AKDT
Civil Twilight 2:25 AM AKDT 1:21 AM AKDT
Nautical Twilight Sun does not rise Sun does not rise
Astronomical Twilight Sun does not rise Sun does not rise
Moon 1:17 AM AKDT (5/27) 7:18 AM AKDT (5/27)
Length of Visible Light 22h 55m
Length of Day
19h 55m
Waning Gibbous, 90% of the Moon is Illuminated
May 27
Waning Gibbous
May 31
Last Quarter
Jun 8
New
Jun 16
First Quarter
Jun 23
Full

Hourly Weather History & Observations

Time (AKDT) Temp. Dew Point Humidity Pressure Visibility Wind Dir Wind Speed Gust Speed Precip Events Conditions
12:53 AM 57.9 °F 33.1 °F 39% 29.82 in 10.0 mi NW 3.5 mph - N/A   Clear
1:53 AM 52.0 °F 34.0 °F 50% 29.83 in 10.0 mi Calm Calm - N/A   Clear
2:53 AM 48.9 °F 34.0 °F 56% 29.83 in 10.0 mi Calm Calm - N/A   Clear
3:53 AM 46.0 °F 33.1 °F 61% 29.83 in 10.0 mi Calm Calm - N/A   Clear
4:53 AM 45.0 °F 35.1 °F 68% 29.84 in 10.0 mi Calm Calm - N/A   Clear
5:53 AM 46.9 °F 37.9 °F 71% 29.85 in 10.0 mi Calm Calm - N/A   Clear
6:53 AM 54.0 °F 36.0 °F 51% 29.86 in 10.0 mi Calm Calm - N/A   Clear
7:53 AM 63.0 °F 34.0 °F 34% 29.85 in 10.0 mi Calm Calm - N/A   Clear
8:53 AM 64.0 °F 35.1 °F 34% 29.86 in 10.0 mi Calm Calm - N/A   Clear
9:53 AM 64.9 °F 36.0 °F 34% 29.86 in 10.0 mi East 6.9 mph - N/A   Clear
10:53 AM 69.1 °F 36.0 °F 30% 29.85 in 10.0 mi Calm Calm - N/A   Clear
11:53 AM 73.0 °F 36.0 °F 26% 29.84 in 10.0 mi Variable 5.8 mph - N/A   Clear
12:53 PM 75.0 °F 32.0 °F 21% 29.83 in 10.0 mi East 3.5 mph - N/A   Clear
1:53 PM 75.9 °F 30.0 °F 19% 29.81 in 10.0 mi Calm Calm - N/A   Clear
2:53 PM 75.9 °F 33.1 °F 21% 29.81 in 10.0 mi East 6.9 mph - N/A   Clear
3:53 PM 75.9 °F 32.0 °F 20% 29.79 in 10.0 mi Calm Calm - N/A   Clear
4:53 PM 79.0 °F 33.1 °F 19% 29.78 in 10.0 mi Calm Calm - N/A   Clear
5:53 PM 79.0 °F 33.1 °F 19% 29.77 in 10.0 mi East 8.1 mph - N/A   Clear
6:53 PM 79.0 °F 32.0 °F 18% 29.76 in 10.0 mi Calm Calm - N/A   Clear
7:53 PM 77.0 °F 32.0 °F 19% 29.75 in 10.0 mi South 11.5 mph - N/A   Partly Cloudy
8:53 PM 75.9 °F 33.1 °F 21% 29.75 in 10.0 mi SSW 5.8 mph - N/A   Clear
9:53 PM 73.0 °F 33.1 °F 23% 29.77 in 10.0 mi Calm Calm - N/A   Clear
10:53 PM 69.1 °F 35.1 °F 29% 29.76 in 10.0 mi Calm Calm - N/A   Clear
11:53 PM 60.1 °F 42.1 °F 51% 29.77 in 10.0 mi Calm Calm - N/A   Clear